DW5080 Weather Reports


time (UTC)temp
C
wind
direction
speed
KPH
gust
KPH
rain 1hr
cm
rain 24hr
cm
rain mn
cm
humidity
%
barometer
mb
20260506134613 12 141 1.6 4.8 0.20 0.61 0.43 97 1005.4
20260506133713 12 159 3.2 8.0 0.23 0.58 0.41 96 1005.7
20260506132813 12 163 3.2 9.7 0.23 0.56 0.38 96 1005.9
20260506131913 12 152 1.6 9.7 0.18 0.51 0.36 96 1006.0
20260506131013 12 167 4.8 11.3 0.20 0.51 0.33 96 1006.3
20260506130113 12 177 6.4 14.5 0.15 0.46 0.28 97 1006.3
20260506125213 11 185 3.2 11.3 0.10 0.41 0.23 97 1006.6
20260506124313 11 182 1.6 6.4 0.10 0.38 0.20 97 1006.3
20260506123413 11 0 0.0 6.4 0.08 0.36 0.18 97 1006.0
20260506122513 11 0 0.0 1.6 0.05 0.33 0.15 97 1006.1
20260506121613 11 0 0.0 3.2 0.05 0.33 0.15 97 1006.0
20260506120713 11 0 0.0 1.6 0.05 0.30 0.13 97 1006.0
20260506115813 11 0 0.0 1.6 0.05 0.30 0.13 97 1006.1
20260506114913 11 0 0.0 1.6 0.05 0.30 0.13 97 1006.2
20260506113113 11 0 0.0 3.2 0.05 0.28 0.10 97 1006.1
20260506112213 11 0 0.0 1.6 0.05 0.28 0.10 97 1006.2
20260506111313 11 0 0.0 1.6 0.05 0.28 0.10 97 1006.3
20260506105513 11 0 0.0 0.0 0.08 0.25 0.08 97 1006.3
20260506104613 11 0 0.0 0.0 0.08 0.25 0.08 97 1006.4
20260506103713 11 0 0.0 0.0 0.05 0.23 0.05 96 1006.3
20260506101913 10 0 0.0 0.0 0.05 0.23 0.05 96 1006.1
20260506101013 10 0 0.0 0.0 0.03 0.20 0.03 96 1006.0
20260506100113 10 0 0.0 0.0 0.00 0.18 0.00 96 1005.9
20260506095213 10 0 0.0 0.0 0.00 0.18 0.00 96 1005.8
20260506094313 10 0 0.0 0.0 0.00 0.18 0.00 96 1005.6
20260506093413 10 0 0.0 0.0 0.00 0.18 0.00 96 1005.6
20260506092513 10 0 0.0 0.0 0.00 0.18 0.00 96 1005.7
20260506090713 10 0 0.0 0.0 0.00 0.18 0.00 96 1006.0
20260506085813 10 0 0.0 1.6 0.00 0.18 0.00 96 1006.1
20260506084913 10 0 0.0 1.6 0.00 0.18 0.00 95 1006.2
20260506081313 11 0 0.0 0.0 0.00 0.18 0.00 95 1006.0
20260506080413 11 0 0.0 0.0 0.00 0.18 0.00 95 1006.0
20260506072813 11 0 0.0 1.6 0.00 0.18 0.00 93 1006.1
20260506071013 10 0 0.0 0.0 0.00 0.18 0.00 93 1006.2
20260506070113 10 0 0.0 0.0 0.00 0.18 0.00 93 1006.3
20260506062513 10 0 0.0 0.0 0.00 0.18 0.00 93 1006.8
20260506061613 10 0 0.0 0.0 0.00 0.18 0.00 93 1006.8
20260506060713 10 0 0.0 1.6 0.00 0.18 0.00 92 1007.1
20260506050413 11 0 0.0 0.0 0.00 0.18 0.00 92 1008.0
20260506044613 11 0 0.0 0.0 0.00 0.18 0.00 92 1008.1
20260506043713 11 37 0.0 6.4 0.00 0.18 0.00 91 1008.0
20260506042813 11 29 1.6 11.3 0.00 0.18 0.00 91 1007.9
20260506041913 11 28 0.0 11.3 0.00 0.18 0.00 91 1007.9
20260506035213 12 0 0.0 3.2 0.00 0.18 0.18 92 1008.4
20260506034313 12 326 1.6 3.2 0.00 0.18 0.18 92 1008.7
20260506033413 12 343 1.6 11.3 0.00 0.18 0.18 93 1008.5
20260506032513 12 2 1.6 8.0 0.00 0.18 0.18 94 1008.5
20260506031613 12 330 0.0 3.2 0.00 0.18 0.18 94 1008.4
20260506030713 12 332 1.6 3.2 0.00 0.18 0.18 94 1008.3
20260506025813 12 325 1.6 6.4 0.03 0.18 0.18 94 1008.4
20260506024913 13 322 1.6 8.0 0.03 0.18 0.18 94 1008.3
20260506024013 13 311 0.0 8.0 0.03 0.18 0.18 95 1008.3
20260506023113 13 0 0.0 4.8 0.03 0.18 0.18 95 1008.0
20260506022213 13 0 0.0 4.8 0.03 0.18 0.18 95 1008.1
20260506021313 13 0 0.0 3.2 0.03 0.18 0.18 95 1008.1
20260506015513 14 0 0.0 3.2 0.00 0.15 0.15 94 1007.8
20260506013713 14 0 0.0 4.8 0.00 0.15 0.15 94 1007.6
20260506011913 14 0 0.0 0.0 0.00 0.15 0.15 94 1007.6
20260506011013 14 0 0.0 3.2 0.00 0.15 0.15 94 1007.3
20260506010113 14 0 0.0 3.2 0.00 0.15 0.15 95 1007.1
20260506005213 14 0 0.0 1.6 0.00 0.15 0.15 95 1006.9
20260506004313 14 0 0.0 0.0 0.00 0.15 0.15 95 1006.9
20260506003413 14 0 0.0 0.0 0.00 0.15 0.15 95 1006.9
20260506002513 14 0 0.0 0.0 0.00 0.15 0.15 95 1006.7
20260506001613 14 0 0.0 0.0 0.00 0.15 0.15 94 1006.6
20260506000713 14 0 0.0 0.0 0.00 0.15 0.15 93 1006.4
20260505235813 14 0 0.0 0.0 0.00 0.15 0.15 93 1006.6
20260505234913 15 0 0.0 0.0 0.00 0.15 0.15 93 1006.6
20260505234013 15 0 0.0 0.0 0.00 0.15 0.15 93 1006.7
20260505233113 15 0 0.0 0.0 0.00 0.15 0.15 93 1006.5
20260505232213 15 0 0.0 0.0 0.00 0.15 0.15 93 1006.5
20260505231313 15 0 0.0 0.0 0.00 0.15 0.15 93 1006.4
20260505230413 15 0 0.0 0.0 0.00 0.15 0.15 93 1006.4
20260505225513 15 0 0.0 0.0 0.00 0.15 0.15 93 1006.4
20260505224613 15 0 0.0 0.0 0.00 0.15 0.15 92 1006.4
20260505223713 15 0 0.0 0.0 0.00 0.15 0.15 92 1006.3
20260505222813 15 178 0.0 1.6 0.00 0.15 0.15 91 1006.3
20260505221913 16 217 0.0 3.2 0.00 0.15 0.15 91 1006.6
20260505221013 16 0 0.0 1.6 0.00 0.15 0.15 89 1006.1
20260505220113 16 0 0.0 0.0 0.00 0.15 0.15 88 1005.9
20260505215213 16 0 0.0 0.0 0.00 0.15 0.15 88 1005.8
20260505214313 17 0 1.6 0.0 0.00 0.15 0.15 88 1005.8
20260505213413 17 171 0.0 4.8 0.00 0.15 0.15 89 1005.8
20260505212513 17 0 0.0 1.6 0.00 0.15 0.15 91 1005.7
20260505210713 16 0 0.0 0.0 0.00 0.15 0.15 94 1005.7
20260505205813 15 0 0.0 0.0 0.10 0.15 0.15 92 1005.8
20260505204913 15 0 0.0 3.2 0.15 0.15 0.15 92 1006.2
20260505204013 15 304 0.0 3.2 0.15 0.15 0.15 92 1006.2
20260505203113 15 309 1.6 8.0 0.15 0.15 0.15 90 1006.2
20260505202213 15 315 1.6 9.7 0.15 0.15 0.15 88 1006.2
20260505200413 18 283 8.0 20.9 0.13 0.13 0.13 73 1006.2
20260505195513 22 225 9.7 32.2 0.00 0.00 0.00 52 1005.8
20260505193713 22 200 14.5 24.1 0.00 0.00 0.00 47 1004.3
20260505191013 23 222 14.5 27.4 0.00 0.00 0.00 46 1004.4
20260505190113 22 198 14.5 37.0 0.00 0.00 0.00 47 1004.5
20260505185213 22 205 16.1 35.4 0.00 0.00 0.00 49 1004.9
20260505183413 22 195 9.7 24.1 0.00 0.00 0.00 50 1005.3
20260505182513 22 205 9.7 27.4 0.00 0.00 0.00 51 1005.3
20260505181613 22 218 9.7 25.7 0.00 0.00 0.00 54 1005.4
20260505175813 21 205 9.7 27.4 0.00 0.00 0.00 57 1005.8
20260505174913 22 213 9.7 20.9 0.00 0.00 0.00 54 1006.0
20260505174013 22 209 9.7 22.5 0.00 0.00 0.00 53 1005.9
20260505172213 21 216 12.9 30.6 0.00 0.00 0.00 52 1006.1
20260505171313 22 218 12.9 24.1 0.00 0.00 0.00 51 1005.9
20260505170413 22 201 12.9 30.6 0.00 0.00 0.00 52 1005.6
20260505165513 22 208 14.5 25.7 0.00 0.00 0.00 52 1005.7
20260505164613 22 222 14.5 29.0 0.00 0.00 0.00 52 1005.9
20260505163713 22 182 17.7 32.2 0.00 0.00 0.00 52 1006.0
20260505162813 22 195 16.1 33.8 0.00 0.00 0.00 52 1006.2
20260505161913 22 200 12.9 37.0 0.00 0.00 0.00 53 1006.3
20260505161013 22 195 11.3 24.1 0.00 0.00 0.00 53 1006.2
20260505160113 22 201 14.5 25.7 0.00 0.00 0.00 52 1006.4
20260505152513 21 207 16.1 37.0 0.00 0.00 0.00 54 1006.6
20260505151613 21 193 14.5 35.4 0.00 0.00 0.00 55 1006.5